sat.trackr.live / text

‹ back to catalog

STARLINK-37228

NORAD 68570 · 2026-070AE

PAYLOAD ACTIVE UNKNOWN

§ Identity

Operator
Country
US
Launch date
2026-04-02
Launch site
AFETR
Launch vehicle
Mass (kg)
RCS (m²)

Purposes: comms

External: N2YO · Heavens-Above · Gunter

§ Orbital elements

Epoch: 2026-09-20T01:08:53.439072Z

Period
93.85 min
Inclination
53.1583°
Eccentricity
0.0001945
Mean motion
15.34411996 rev/d
Perigee alt
461.3 km
Apogee alt
464.0 km
Semi-major
6,840.8 km
B*
6.9850e-4
RAAN
176.1481°
Arg perigee
94.9078°
Mean anomaly
265.2147°
Rev number
2,636

§ Raw data

STARLINK-372281 68570U 26070AE  26263.04784073  .00023306  00000+0  69850-3 0  99972 68570  53.1583 176.1481 0001945  94.9078 265.2147 15.34411996 26364

JSON: /api/v1/satellites/68570 · /tle

For live sub-satellite position, see the globe view (requires WebGL).

§ Visibility from observer

Set your observer location to see the next 7 days of passes ≥ 10°. The values pass through the URL so the page stays shareable.

No JS? Fill the form by hand. The geolocation button needs JavaScript.